Weather History for PHNL - February, 2013

Change the Weather History Date:

Friday, February 22, 2013

  Actual Average Record
Temperature  
Mean Temperature 74 °F 73 °F  
Max Temperature 78 °F 80 °F 85 °F (1977)
Min Temperature 70 °F 66 °F 54 °F (1901)
Degree Days  
Heating Degree Days 0 0  
Month to date heating degree days 0 0  
Since 1 July heating degree days 0 0  
Cooling Degree Days 9 8  
Month to date cooling degree days 217 176  
Year to date cooling degree days 436 430  
Growing Degree Days 24 (Base 50)    
Moisture  
Dew Point 65 °F    
Average Humidity 73    
Maximum Humidity 84    
Minimum Humidity 62    
Precipitation  
Precipitation 0.01 in 0.08 in 2.80 in (1955)
Month to date precipitation 0.48 1.53  
Year to date precipitation 2.90 3.84  
Snow  
Snow 0.00 in - - ()
Month to date snowfall 0.0  
Since 1 July snowfall 0.0  
Snow Depth 0.00 in    
Sea Level Pressure  
Sea Level Pressure 30.11 in    
Wind  
Wind Speed 16 mph (NE)    
Max Wind Speed 26 mph    
Max Gust Speed 39 mph    
Visibility 10 miles    
Events Rain    
T = Trace of Precipitation, MM = Missing Value Source: NWS Daily Summary

Daily Weather History Graph

Daily Weather History Graph

Search for Another Location

Airport or City:

Trip Planner

Search our weather history database for the weather conditions in past years. The results will help you decide how hot, cold, wet, or windy it might be!

Date:

Astronomy

Feb. 22, 2013 Rise Set
Actual Time 6:57 AM HST 6:33 PM HST
Civil Twilight 6:34 AM HST 6:55 PM HST
Nautical Twilight 6:08 AM HST 7:21 PM HST
Astronomical Twilight 5:42 AM HST 7:47 PM HST
Moon 4:07 PM HST (2/22) 4:35 AM HST (2/22)
Length of Visible Light 12h 21m
Length of Day
11h 36m
Waxing Gibbous, 91% of the Moon is Illuminated
Feb 22
Waxing Gibbous
Feb 25
Full
Mar 4
Last Quarter
Mar 11
New
Mar 19
First Quarter

Hourly Weather History & Observations

Time (HST) Temp. Dew Point Humidity Pressure Visibility Wind Dir Wind Speed Gust Speed Precip Events Conditions
12:53 AM 71.1 °F 65.3 °F 82% 30.14 in 10.0 mi ENE 15.0 mph - 0.00 in   Mostly Cloudy
1:53 AM 71.1 °F 66.0 °F 84% 30.13 in 10.0 mi NE 10.4 mph 19.6 mph 0.00 in Rain Light Rain
2:53 AM 71.1 °F 66.0 °F 84% 30.10 in 10.0 mi NE 12.7 mph - 0.00 in Rain Light Rain
3:53 AM 71.1 °F 66.0 °F 84% 30.09 in 10.0 mi ENE 15.0 mph 19.6 mph 0.00 in Rain Light Rain
4:53 AM 71.1 °F 64.9 °F 81% 30.07 in 10.0 mi NE 11.5 mph - 0.00 in   Mostly Cloudy
5:53 AM 71.1 °F 64.9 °F 81% 30.09 in 10.0 mi NNE 9.2 mph 20.7 mph 0.00 in   Mostly Cloudy
6:53 AM 72.0 °F 64.9 °F 78% 30.10 in - ENE 15.0 mph - N/A   Mostly Cloudy
7:53 AM 71.1 °F 66.0 °F 84% 30.11 in 10.0 mi NE 13.8 mph - 0.00 in Rain Light Rain
8:53 AM 73.0 °F 66.0 °F 79% 30.14 in 10.0 mi ENE 17.3 mph - 0.00 in Rain Light Rain
9:17 AM 73.4 °F 66.2 °F 78% 30.14 in 1.5 mi NE 11.5 mph - 0.00 in Rain Light Rain
9:19 AM 73.4 °F 66.2 °F 78% 30.14 in 9.0 mi NE 11.5 mph - 0.00 in Rain Light Rain
9:53 AM 71.1 °F 66.0 °F 84% 30.14 in 7.0 mi NE 12.7 mph 19.6 mph 0.00 in Rain Light Rain
10:53 AM 73.9 °F 66.0 °F 76% 30.14 in 10.0 mi NNE 18.4 mph 24.2 mph 0.00 in   Mostly Cloudy
11:53 AM 73.0 °F - N/A% 30.12 in 10.0 mi NNE 16.1 mph 26.5 mph 0.01 in Rain Light Rain
12:53 PM 77.0 °F 68.2 °F 74% 30.10 in 10.0 mi ENE 20.7 mph 32.2 mph 0.00 in Rain Light Rain
1:53 PM 77.0 °F 66.0 °F 69% 30.08 in 10.0 mi ENE 20.7 mph 27.6 mph N/A   Scattered Clouds
2:53 PM 78.1 °F 64.9 °F 64% 30.06 in 10.0 mi ENE 18.4 mph 29.9 mph N/A   Scattered Clouds
3:53 PM 77.0 °F 64.9 °F 66% 30.05 in 10.0 mi ENE 21.9 mph 29.9 mph N/A   Scattered Clouds
4:53 PM 75.9 °F 64.9 °F 69% 30.06 in 10.0 mi NE 12.7 mph 19.6 mph N/A   Mostly Cloudy
5:53 PM 73.0 °F 64.0 °F 73% 30.08 in 10.0 mi ENE 17.3 mph 26.5 mph N/A   Mostly Cloudy
6:53 PM 73.0 °F 64.0 °F 73% 30.09 in 10.0 mi NE 18.4 mph 26.5 mph N/A   Mostly Cloudy
7:53 PM 72.0 °F 64.0 °F 76% 30.10 in 10.0 mi NE 24.2 mph 29.9 mph 0.00 in Rain Light Rain
8:53 PM 72.0 °F 63.0 °F 73% 30.12 in 10.0 mi ENE 15.0 mph - 0.00 in   Scattered Clouds
9:53 PM 72.0 °F 63.0 °F 73% 30.13 in 10.0 mi ENE 15.0 mph - N/A   Scattered Clouds
10:53 PM 72.0 °F 63.0 °F 73% 30.14 in 10.0 mi ENE 16.1 mph 21.9 mph N/A   Mostly Cloudy
11:53 PM 72.0 °F 62.1 °F 71% 30.13 in 10.0 mi ENE 18.4 mph - N/A   Scattered Clouds